When you browse on this site, cookies collect data to enhance your experience and personalize the content and advertising you see.
Visit our Privacy Policy to learn more. By continuing to use the site, you agree to this use of cookies and data.
  • In Switzerland
  • List of Countries
  • For 7 days
  • Water Temperature
  • Weather Map
  • Weather Widgets
  • user-avatar
    Login

    Hourly Weather Reims

    Today, 4 June, Thursday

    Time Temperature Precipitation Wind Pressure Humidity
    00:00 +14°C° 0 mm 2 mps 742 mmHg 92%
    01:00 +13°C° 0.8 mm 2 mps 742 mmHg 94%
    02:00 +12°C° 0.8 mm 2 mps 742 mmHg 95%
    03:00 +12°C° 0.8 mm 2 mps 741 mmHg 96%
    04:00 +12°C° 0 mm 3 mps 741 mmHg 95%
    05:00 +12°C° 0 mm 3 mps 741 mmHg 95%
    06:00 +13°C° 0 mm 4 mps 741 mmHg 93%
    07:00 +13°C° 0.1 mm 4 mps 741 mmHg 90%
    08:00 +14°C° 0.1 mm 4 mps 741 mmHg 88%
    09:00 +14°C° 0.1 mm 4 mps 741 mmHg 85%
    10:00 +14°C° 0.3 mm 4 mps 741 mmHg 84%
    11:00 +14°C° 0.3 mm 4 mps 741 mmHg 83%
    12:00 +13°C° 0 mm 4 mps 741 mmHg 86%
    13:00 +13°C° 0.2 mm 4 mps 741 mmHg 86%
    14:00 +14°C° 0.2 mm 4 mps 741 mmHg 86%
    15:00 +14°C° 0.2 mm 4 mps 741 mmHg 85%
    16:00 +13°C° 0.2 mm 4 mps 741 mmHg 87%
    17:00 +13°C° 0.2 mm 3 mps 741 mmHg 89%
    18:00 +12°C° 0.2 mm 3 mps 742 mmHg 92%
    19:00 +11°C° 0 mm 3 mps 742 mmHg 92%
    20:00 +12°C° 0 mm 2 mps 742 mmHg 93%
    21:00 +10°C° 0 mm 2 mps 743 mmHg 94%
    22:00 +10°C° 0 mm 2 mps 743 mmHg 94%
    23:00 +9°C° 0 mm 2 mps 743 mmHg 94%

    Tomorrow, 5 June, Friday

    Time Temperature Precipitation Wind Pressure Humidity
    00:00 +9°C° 0 mm 2 mps 743 mmHg 94%
    01:00 +9°C° 0 mm 3 mps 743 mmHg 94%
    02:00 +8°C° 0 mm 3 mps 742 mmHg 94%
    03:00 +8°C° 0 mm 3 mps 742 mmHg 94%
    04:00 +7°C° 0 mm 4 mps 742 mmHg 93%
    05:00 +8°C° 0 mm 5 mps 741 mmHg 91%
    06:00 +9°C° 0 mm 6 mps 741 mmHg 90%
    07:00 +9°C° 0.3 mm 6 mps 741 mmHg 92%
    08:00 +9°C° 0.3 mm 7 mps 740 mmHg 93%
    09:00 +9°C° 0.3 mm 8 mps 740 mmHg 94%
    10:00 +10°C° 1 mm 7 mps 740 mmHg 92%
    11:00 +11°C° 1 mm 6 mps 740 mmHg 90%
    12:00 +11°C° 1 mm 6 mps 740 mmHg 88%
    13:00 +12°C° 0.2 mm 7 mps 740 mmHg 80%
    14:00 +13°C° 0.2 mm 8 mps 740 mmHg 72%
    15:00 +16°C° 0.2 mm 9 mps 740 mmHg 64%
    16:00 +15°C° 0.1 mm 8 mps 741 mmHg 67%
    17:00 +14°C° 0.1 mm 7 mps 741 mmHg 71%
    18:00 +13°C° 0.1 mm 6 mps 742 mmHg 74%
    19:00 +10°C° 0 mm 5 mps 742 mmHg 76%
    20:00 +10°C° 0 mm 4 mps 743 mmHg 78%
    21:00 +9°C° 0 mm 3 mps 743 mmHg 80%
    22:00 +8°C° 0 mm 3 mps 743 mmHg 83%
    23:00 +8°C° 0 mm 3 mps 743 mmHg 86%

    Day after tomorrow, 6 June, Saturday

    Time Temperature Precipitation Wind Pressure Humidity
    00:00 +7°C° 0 mm 3 mps 743 mmHg 89%
    01:00 +8°C° 0 mm 3 mps 743 mmHg 89%
    02:00 +8°C° 0 mm 3 mps 743 mmHg 89%
    03:00 +9°C° 0 mm 3 mps 743 mmHg 89%
    04:00 +8°C° 0.3 mm 4 mps 743 mmHg 90%
    05:00 +10°C° 0.3 mm 4 mps 743 mmHg 91%
    06:00 +10°C° 0.3 mm 4 mps 743 mmHg 92%
    07:00 +10°C° 0.2 mm 5 mps 743 mmHg 85%
    08:00 +11°C° 0.2 mm 6 mps 744 mmHg 78%
    09:00 +12°C° 0.2 mm 7 mps 744 mmHg 72%
    10:00 +14°C° 0.1 mm 7 mps 744 mmHg 67%
    11:00 +14°C° 0.1 mm 7 mps 744 mmHg 62%
    12:00 +15°C° 0.1 mm 7 mps 744 mmHg 57%
    13:00 +15°C° 0 mm 7 mps 745 mmHg 57%
    14:00 +15°C° 0 mm 7 mps 745 mmHg 58%
    15:00 +15°C° 0 mm 7 mps 745 mmHg 58%
    16:00 +14°C° 0 mm 6 mps 745 mmHg 63%
    17:00 +14°C° 0 mm 5 mps 745 mmHg 68%
    18:00 +13°C° 0 mm 4 mps 745 mmHg 73%
    19:00 +11°C° 0 mm 4 mps 746 mmHg 75%
    20:00 +10°C° 0 mm 3 mps 746 mmHg 77%
    21:00 +8°C° 0 mm 3 mps 746 mmHg 79%
    22:00 +7°C° 0 mm 4 mps 746 mmHg 78%
    23:00 +7°C° 0 mm 4 mps 746 mmHg 77%

    7 June, Sunday

    Time Temperature Precipitation Wind Pressure Humidity
    00:00 +7°C° 0 mm 4 mps 746 mmHg 76%
    01:00 +7°C° 0 mm 4 mps 747 mmHg 78%
    02:00 +7°C° 0 mm 4 mps 747 mmHg 79%
    03:00 +7°C° 0 mm 5 mps 747 mmHg 80%
    04:00 +8°C° 0 mm 5 mps 747 mmHg 82%
    05:00 +8°C° 0 mm 5 mps 748 mmHg 83%
    06:00 +9°C° 0 mm 5 mps 748 mmHg 84%
    07:00 +10°C° 0 mm 5 mps 748 mmHg 81%
    08:00 +13°C° 0 mm 4 mps 749 mmHg 79%
    09:00 +14°C° 0 mm 4 mps 749 mmHg 76%
    10:00 +15°C° 0.2 mm 4 mps 749 mmHg 73%
    11:00 +17°C° 0.2 mm 4 mps 749 mmHg 70%
    12:00 +18°C° 0.2 mm 4 mps 749 mmHg 67%
    13:00 +19°C° 0.1 mm 4 mps 749 mmHg 65%
    14:00 +19°C° 0.1 mm 3 mps 749 mmHg 63%
    15:00 +19°C° 0.1 mm 3 mps 749 mmHg 61%
    16:00 +19°C° 0.2 mm 3 mps 749 mmHg 68%
    17:00 +18°C° 0.2 mm 2 mps 749 mmHg 75%
    18:00 +17°C° 0.2 mm 2 mps 749 mmHg 81%
    19:00 +15°C° 0.1 mm 1 mps 749 mmHg 84%
    20:00 +14°C° 0.1 mm 1 mps 750 mmHg 86%
    21:00 +12°C° 0.1 mm 1 mps 750 mmHg 88%
    22:00 +11°C° 0 mm 1 mps 750 mmHg 89%
    23:00 +11°C° 0 mm 1 mps 750 mmHg 90%

    8 June, Monday

    Time Temperature Precipitation Wind Pressure Humidity
    00:00 +10°C° 0 mm 1 mps 750 mmHg 92%
    01:00 +10°C° 0 mm 1 mps 750 mmHg 92%
    02:00 +9°C° 0 mm 1 mps 751 mmHg 92%
    03:00 +9°C° 0 mm 1 mps 751 mmHg 93%
    04:00 +10°C° 0 mm 1 mps 751 mmHg 92%
    05:00 +11°C° 0 mm 1 mps 751 mmHg 92%
    06:00 +12°C° 0 mm 1 mps 751 mmHg 91%
    07:00 +13°C° 0 mm 1 mps 751 mmHg 86%
    08:00 +15°C° 0 mm 2 mps 752 mmHg 82%
    09:00 +16°C° 0 mm 2 mps 752 mmHg 77%
    10:00 +17°C° 0.4 mm 3 mps 752 mmHg 78%
    11:00 +17°C° 0.4 mm 3 mps 752 mmHg 78%
    12:00 +18°C° 0.4 mm 4 mps 751 mmHg 78%
    13:00 +18°C° 0.7 mm 4 mps 751 mmHg 79%
    14:00 +18°C° 0.7 mm 4 mps 751 mmHg 80%
    15:00 +18°C° 0.7 mm 4 mps 751 mmHg 81%
    16:00 +17°C° 0.4 mm 4 mps 752 mmHg 83%
    17:00 +17°C° 0.4 mm 4 mps 752 mmHg 85%
    18:00 +15°C° 0.4 mm 4 mps 752 mmHg 88%
    19:00 +14°C° 0 mm 4 mps 752 mmHg 90%
    20:00 +12°C° 0 mm 4 mps 753 mmHg 92%
    21:00 +11°C° 0 mm 4 mps 753 mmHg 94%
    22:00 +10°C° 0 mm 3 mps 754 mmHg 95%
    23:00 +9°C° 0 mm 3 mps 754 mmHg 96%

    9 June, Tuesday

    Time Temperature Precipitation Wind Pressure Humidity
    00:00 +8°C° 0 mm 3 mps 754 mmHg 96%
    01:00 +8°C° 0 mm 3 mps 754 mmHg 97%
    02:00 +8°C° 0 mm 3 mps 754 mmHg 97%
    03:00 +7°C° 0 mm 3 mps 754 mmHg 97%
    04:00 +8°C° 0 mm 3 mps 754 mmHg 97%
    05:00 +9°C° 0 mm 3 mps 754 mmHg 96%
    06:00 +10°C° 0 mm 3 mps 755 mmHg 96%
    07:00 +12°C° 0 mm 3 mps 755 mmHg 90%
    08:00 +13°C° 0 mm 3 mps 755 mmHg 85%
    09:00 +14°C° 0 mm 3 mps 755 mmHg 80%
    10:00 +16°C° 0.2 mm 3 mps 755 mmHg 76%
    11:00 +17°C° 0.2 mm 3 mps 755 mmHg 72%
    12:00 +18°C° 0.2 mm 3 mps 755 mmHg 69%
    13:00 +18°C° 0.6 mm 3 mps 755 mmHg 72%
    14:00 +18°C° 0.6 mm 4 mps 755 mmHg 76%
    15:00 +18°C° 0.6 mm 4 mps 754 mmHg 79%
    16:00 +18°C° 0.6 mm 4 mps 755 mmHg 82%
    17:00 +17°C° 0.6 mm 4 mps 755 mmHg 85%
    18:00 +15°C° 0.6 mm 4 mps 755 mmHg 89%
    19:00 +14°C° 0.2 mm 4 mps 755 mmHg 90%
    20:00 +13°C° 0.2 mm 4 mps 755 mmHg 92%
    21:00 +12°C° 0.2 mm 4 mps 756 mmHg 94%
    22:00 +11°C° 0.1 mm 4 mps 756 mmHg 95%
    23:00 +11°C° 0.1 mm 4 mps 756 mmHg 96%
    Show more